Location: Wroclaw
(51.1000°N, 17.0330°E)
Time: 19:29:46
(UTC+01:00)

ISS - Visible Passes

Search period start: 24 March 2023 00:00
Search period end: 03 April 2023 01:00
Orbit: 414 x 422 km, 51.6° (Epoch: 24 March)

Date Brightness Start Highest point End Pass type
(mag) Time Alt. Az. Time Alt. Az. Time Alt. Az.
24 Mar -3.7 18:42:43 10° W 18:46:04 88° NNW 18:49:26 10° E visible
24 Mar -3.8 20:19:34 10° W 20:22:45 80° W 20:22:45 80° W visible
25 Mar -3.8 19:31:39 10° W 19:35:00 82° N 19:36:46 26° E visible
25 Mar -1.3 21:08:28 10° W 21:09:42 20° W 21:09:42 20° W visible
26 Mar -3.7 19:43:41 10° W 19:47:02 79° N 19:50:24 10° E visible
26 Mar -3.6 21:20:30 10° W 21:23:41 59° SW 21:23:41 59° SW visible
27 Mar -3.8 20:32:31 10° W 20:35:52 77° SSW 20:37:39 25° ESE visible
27 Mar -1.1 22:09:34 10° W 22:10:34 16° WSW 22:10:34 16° WSW visible
28 Mar -2.7 21:21:24 10° W 21:24:27 33° SSW 21:24:31 33° SSW visible
29 Mar -3.1 20:33:16 10° W 20:36:30 46° SSW 20:38:27 20° SE visible
30 Mar -1.6 21:22:31 10° W 21:24:47 17° SW 21:25:20 16° SSW visible
31 Mar -2.0 20:34:04 10° W 20:36:51 24° SW 20:39:19 12° SSE visible
02 Apr -1.0 20:35:33 10° WSW 20:36:54 12° SW 20:38:14 10° SSW visible
